Regional Weather Roundup
Issued by NWS Boston, MA

Home | Current Version | Previous Version | Text Only | Print | Product List | Glossary On
Versions: 1 2 3 4 5 6 7 8 9 10 11 12 13 14 15 16 17 18 19 20 21 22 23 24 25 26 27 28 29 30 31 32 33 34 35 36 37 38 39 40
000
ASUS41 KBOX 220110
RWRBOX

REGIONAL WEATHER ROUNDUP
NATIONAL WEATHER SERVICE TAUNTON MA
900 PM EDT TUE OCT 21 2014

NOTE:  "FAIR" INDICATES FEW OR NO CLOUDS BELOW 12,000 FEET WITH NO
SIGNIFICANT WEATHER AND/OR OBSTRUCTIONS TO VISIBILITY.  THE FOLLOWING
OBSERVATION LOCATIONS DO NOT REPORT PRESENT WEATHER...PROVINCETOWN...
SMITHFIELD...BLOCK ISLAND...KEENE...AND OXFORD.

MAZALL-220200-
EASTERN MASSACHUSETTS

CITY           SKY/WX    TMP DP  RH WIND       PRES   REMARKS
BOSTON         CLOUDY    57  54  89 NE10      29.95R
BEVERLY        CLOUDY    55  53  93 N8        29.96R
LAWRENCE       CLOUDY    52  51  97 N12       29.99R
BEDFORD        CLOUDY    55  54  96 N8        29.95R
BLUE HILL        N/A     54  54 100 NE9       29.94R
NORWOOD        CLOUDY    53  52  96 CALM      29.95R
MARSHFIELD     NOT AVBL
PLYMOUTH       PTCLDY    52  52 100 CALM      29.94R FOG
TAUNTON        CLOUDY    56  54  93 NW5       29.93R FOG
NEW BEDFORD    PTCLDY    55  54  96 N3        29.91R
$$

MAZALL-220200-
CAPE COD AND THE ISLANDS

CITY           SKY/WX    TMP DP  RH WIND       PRES   REMARKS
FALMOUTH       CLOUDY    59  57  94 E5        29.92R
HYANNIS        MOCLDY    58  55  90 E3        29.91R
CHATHAM        MOCLDY    57  56  96 E3        29.93R
PROVINCETOWN   CLOUDY    57  54  88 NE5       29.94R
NANTUCKET      PTCLDY    56  54  93 E8        29.90S
MARTHAS VNYRD  MOCLDY    49  49 100 N6        29.90S FOG
$$

MAZALL-220200-
CENTRAL AND WESTERN MASSACHUSETTS

CITY           SKY/WX    TMP DP  RH WIND       PRES   REMARKS
WORCESTER      CLOUDY    53  51  93 NE6       29.96R
FITCHBURG      CLOUDY    55  51  86 N8        29.99R
ORANGE         CLOUDY    53  50  89 N6        29.98R
SPRINGFIELD    CLOUDY    53  49  86 N7        29.94R
WESTFIELD      CLOUDY    54  48  80 N10       29.95R
NORTH ADAMS    CLOUDY    50  50 100 CALM      29.97R FOG
PITTSFIELD     CLOUDY    50  49  96 NE5       29.95R
$$

RIZALL-220200-
RHODE ISLAND

CITY           SKY/WX    TMP DP  RH WIND       PRES   REMARKS
PROVIDENCE     CLOUDY    57  56  96 NE10      29.93R FOG
NEWPORT        CLOUDY    59  56  89 N7        29.92R
BLOCK ISLAND   MOCLDY    61  55  82 E7        29.90R
SMITHFIELD     CLOUDY    55  48  76 N12       29.94R
WESTERLY       CLOUDY    57  56  96 N6        29.92R
$$

CTZALL-220200-
CONNECTICUT

CITY           SKY/WX    TMP DP  RH WIND       PRES   REMARKS
BRADLEY INTL   CLOUDY    55  48  77 N10       29.93R
HARTFORD       LGT RAIN  55  50  83 VRB5      29.93R
BRIDGEPORT     MOCLDY    58  53  84 NE10      29.90R
DANBURY        HAZE      51  30  44 CALM      29.92R VSB 1/2
GROTON         CLOUDY    58  56  93 NE5       29.91R
NEW HAVEN      MOCLDY    59  54  83 N9        29.91R
CHESTER        NOT AVBL
MERIDEN        LGT RAIN  56  50  80 N9        29.92R
WILLIMANTIC    CLOUDY    59  53  80 NE9       29.93R
OXFORD         MOCLDY    55  46  71 E6        29.93R
$$

MEZ002-015-021-024-NHZ003-005-008-011-012-014-VTZ005-008-220200-
NORTHERN NEW ENGLAND

CITY           SKY/WX    TMP DP  RH WIND       PRES   REMARKS
PORTLAND ME    RAIN      51  49  92 NE12      30.02R FOG
BANGOR ME      LGT RAIN  47  45  93 NE12      30.14R
CONCORD NH     CLOUDY    50  47  89 N10G18    30.01R
MANCHESTER NH  CLOUDY    53  47  79 N12       29.98R
NASHUA NH      MOCLDY    54  52  93 N6        29.99R
PORTSMOUTH NH  LGT RAIN  51  49  93 N14       29.98R
JAFFREY NH     FOG       49  48  97 VRB5      29.99R VSB 1
KEENE NH       CLOUDY    52  43  71 N9        30.00R
BURLINGTON VT  CLOUDY    49  46  90 N9        30.06R
MT. WASHINGTON LGT RAIN  32  32 100 E26         N/A  VSB 0   WCI  18
$$

NYZ052-076-220200-
EASTERN NEW YORK

CITY           SKY/WX    TMP DP  RH WIND       PRES   REMARKS
ALBANY         CLOUDY    51  47  86 N7        29.99R
NEW YORK CITY  MOCLDY    62  53  72 VRB5      29.89R
$$

ANZALL-220200-
MARINE OBSERVATIONS

STATION/POSITION TIME  TEMP    WIND        PRES    VSBY  WAVE
                       AIR SEA DIR/SP/G                  HT/PER
                 (UTC) (F)     (DEG/KT/KT) (MB)    (MI)  (FT/S)
BOSTON BUOY      NOT AVBL
BUZZARDS BAY     NOT AVBL
NANTUCKET SOUND  NOT AVBL
MASS BAY-STELLWA NOT AVBL
ISLE OF SHOALS   NOT AVBL
S OF BLOCK IS    NOT AVBL
$$

......................KEY.........................
  SKY/WX - SKY CONDITION/PRESENT WEATHER
  TMP    - TEMPERATURE IN FAHRENHEIT
  DWPT   - DEWPOINT IN FAHRENHEIT
  RH     - RELATIVE HUMIDITY IN PERCENT
  WIND   - DIRECTION AND SPEED IN MPH
  PRES   - MEAN SEA LEVEL PRESSURE IN INCHES OF HG
  WCI    - WIND CHILL INDEX
  VSB    - VISIBILITY IN MILES
  HX     - HEAT INDEX
  TC     - TEMPERATURE IN CELSIUS
  VRB    - VARIABLE WIND DIRECTION
  N/A    - NOT AVAILABLE



USA.gov is the U.S. government's official web portal to all federal, state and local government web resources and services.